Conroe, TX

6:29 AM CDT on May 30, 2017 (GMT -0500)
Montgomery County

Weather History for KCXO - February, 2013

Change the Weather History Date:

Thursday, February 28, 2013

  Actual Average Record
Temperature  
Mean Temperature 46 °F -  
Max Temperature 57 °F 64 °F 81 °F (2017)
Min Temperature 32 °F 44 °F 24 °F (2002)
Degree Days  
Heating Degree Days 20    
Moisture  
Dew Point 28 °F    
Average Humidity 55    
Maximum Humidity 92    
Minimum Humidity 33    
Precipitation  
Precipitation 0.00 in - - ()
Sea Level Pressure  
Sea Level Pressure 30.22 in    
Wind  
Wind Speed 7 mph (NNW)    
Max Wind Speed 12 mph    
Max Gust Speed 23 mph    
Visibility 10 miles    
Events      
Averages and records for this station are not official NWS values.
T = Trace of Precipitation, MM = Missing Value Source: NWS Daily Summary

Daily Weather History Graph

Daily Weather History Graph

Search for Another Location

Airport or City:

Trip Planner

Search our weather history database for the weather conditions in past years. The results will help you decide how hot, cold, wet, or windy it might be!

Date:

Astronomy

Feb. 28, 2013 Rise Set
Actual Time 6:48 AM CST 6:20 PM CST
Civil Twilight 6:24 AM CST 6:44 PM CST
Nautical Twilight 5:56 AM CST 7:12 PM CST
Astronomical Twilight 5:28 AM CST 7:39 PM CST
Moon 9:29 PM CST (2/28) 8:15 AM CST (2/28)
Length of Visible Light 12h 19m
Length of Day
11h 31m
Waning Gibbous, 90% of the Moon is Illuminated
Feb 28
Waning Gibbous
Mar 4
Last Quarter
Mar 11
New
Mar 19
First Quarter
Mar 27
Full

Hourly Weather History & Observations

Time (CST) Temp. Windchill Dew Point Humidity Pressure Visibility Wind Dir Wind Speed Gust Speed Precip Events Conditions
12:53 AM 44.1 °F 39.0 °F 26.1 °F 49% 30.19 in 10.0 mi NW 9.2 mph - N/A   Clear
1:53 AM 44.1 °F 39.5 °F 26.1 °F 49% 30.20 in 10.0 mi NNW 8.1 mph - N/A   Clear
2:53 AM 43.0 °F 39.5 °F 26.1 °F 51% 30.19 in 10.0 mi Variable 5.8 mph - N/A   Clear
3:53 AM 39.9 °F 36.7 °F 26.1 °F 58% 30.19 in 10.0 mi North 4.6 mph - N/A   Clear
4:53 AM 41.0 °F 35.8 °F 27.0 °F 57% 30.20 in 10.0 mi NNW 8.1 mph - N/A   Clear
6:53 AM 39.9 °F 35.1 °F 28.0 °F 63% 30.26 in 10.0 mi NNW 6.9 mph - N/A   Clear
8:53 AM 42.1 °F 36.6 °F 28.0 °F 58% 30.30 in 10.0 mi NNW 9.2 mph - N/A   Clear
9:53 AM 43.0 °F 37.2 °F 28.0 °F 56% 30.31 in 10.0 mi NW 10.4 mph - N/A   Clear
10:53 AM 46.0 °F 41.0 °F 27.0 °F 47% 30.29 in 10.0 mi NNW 10.4 mph - N/A   Clear
11:53 AM 48.0 °F - 27.0 °F 44% 30.28 in 10.0 mi NNW 10.4 mph 19.6 mph N/A   Clear
12:53 PM 51.1 °F - 25.0 °F 36% 30.25 in 10.0 mi NNW 6.9 mph 18.4 mph N/A   Clear
1:53 PM 54.0 °F - 25.0 °F 33% 30.20 in 10.0 mi NNW 11.5 mph 23.0 mph N/A   Clear
2:53 PM 55.0 °F - 27.0 °F 34% 30.18 in 10.0 mi NNW 11.5 mph - N/A   Clear
3:53 PM 55.9 °F - 28.9 °F 36% 30.17 in 10.0 mi NNW 8.1 mph - N/A   Clear
4:53 PM 57.0 °F - 28.0 °F 33% 30.17 in 10.0 mi NW 9.2 mph - N/A   Clear
5:53 PM 54.0 °F - 27.0 °F 35% 30.17 in 10.0 mi NW 8.1 mph - N/A   Clear
6:53 PM 48.9 °F - 32.0 °F 52% 30.19 in 10.0 mi NW 3.5 mph - N/A   Clear
7:53 PM 43.0 °F - 35.1 °F 74% 30.20 in 10.0 mi Calm Calm - N/A   Clear
8:53 PM 39.0 °F - 34.0 °F 82% 30.21 in 10.0 mi Calm Calm - N/A   Clear
9:53 PM 36.0 °F - 33.1 °F 89% 30.23 in 10.0 mi Calm Calm - N/A   Clear
10:53 PM 34.0 °F - 32.0 °F 92% 30.23 in 10.0 mi Calm Calm - N/A   Clear
11:53 PM 32.0 °F - 30.0 °F 92% 30.22 in 10.0 mi Calm Calm - N/A   Clear